Skip Page Navigation
NASA JPL Caltech
NASA Logo - Jet Propulsion Laboratory + View the NASA Portal
+ Center for Near-Earth Object Studies
JPL Home Earth Solar System Stars & Galaxies Technology
JPL Solar System Dynamics
BODIES ORBITS EPHEMERIDES TOOLS PHYSICAL DATA DISCOVERY FAQ SITE MAP
JPL Small-Body Database Browser
Search: [ help ]  
(2020 KJ7)
Classification: Amor [NEO]          SPK-ID: 54017316
Ephemeris | Orbit Diagram | Orbital Elements | Mission Design | Physical Parameters | Close-Approach Data ]

[ hide orbit diagram ]

For accurate long-term ephemerides, please instead use our Horizons system.This orbit viewer was implemented using two-body methods, and hence should not be used for determining accurate long-term trajectories (over several years or decades) or planetary encounter circumstances.


[ revert to old Java-based viewer ]

Orbital Elements at Epoch 2459000.5 (2020-May-31.0) TDB
Reference: JPL 18 (heliocentric ecliptic J2000)
 Element Value Uncertainty (1-sigma)   Units 
e .1942938591353837 8.8251e-06  
a 1.291350523421655 1.5282e-05 au
q 1.040449046729564 9.1743e-07 au
i 3.346775718448383 0.00011699 deg
node 114.1684384282614 3.0327e-05 deg
peri 187.5483895423758 5.2705e-05 deg
M 324.4200254382617 0.00067263 deg
tp 2459053.474610682451
(2020-Jul-22.97461068)
6.8954e-05 TDB
period 535.9998167674478
1.47
0.0095144
2.605e-05
d
yr
n .6716420206467941 1.1922e-05 deg/d
Q 1.542252000113746 1.8251e-05 au
  Orbit Determination Parameters
   # obs. used (total)      101  
   data-arc span      79 days  
   first obs. used      2020-05-14  
   last obs. used      2020-08-01  
   planetary ephem.      DE431  
   SB-pert. ephem.      SB431-N16  
   condition code      5  
   norm. resid. RMS      .53757  
   source      ORB  
   producer      Otto Matic  
   solution date      2020-Aug-31 09:29:31  

Additional Information
 Earth MOID = .0253532 au 
 Jupiter MOID = 3.63547 au 
 T_jup = 5.005 
[ show covariance matrix ]

Ephemeris | Orbit Diagram | Orbital Elements | Mission Design | Physical Parameters | Close-Approach Data ]

Physical Parameter Table
Parameter Symbol Value Units Sigma Reference Notes
absolute magnitude H 25.137   .38246 18 autocmod 2.8

[ hide close-approach data ]
Close-Approach Data   ...sorted by Date/Time (TDB)
Date/Time (TDB) Time Uncertainty
(days_HH:MM)
Body Nominal Distance (au) Minimum Distance (au) Maximum Distance (au) V-relative (km/s) V-infinity (km/s) JD (TDB) Time Uncertainty (minutes) Semi-major axis (km) Semi-minor axis (km) range-LOV angle (deg) N-sigma BP Orbit Ref. Reference Modified
1917-Jun-11 07:39 8_06:11 Earth 0.266243432222837 0.139322433724287 0.393547213172872 10.3785014866388 10.3775371715146 2421390.818816042 11890.8444274921 6358547.02462763 4.13499556054862 -4.10289476544444 469580.517625027 T 18 CATAB v2.0f-lin.ifort 2020-Aug-31 09:29:45 2020-Aug-31 09:30
1920-Nov-20 16:14 8_22:47 Earth 0.432102365881286 0.397623959457085 0.467073493514853 6.52967849548547 6.5287340751659 2422649.176418455 12887.2530766962 1878303.02575842 5.10712007682548 -22.7690397894626 2565546.10444658 T 18 CATAB v2.0f-lin.ifort 2020-Aug-31 09:29:45 2020-Aug-31 09:30
1936-Mar-04 14:16 2_18:21 Earth 0.490236934211221 0.479583234323527 0.500900861632028 7.5113544863789 7.51063086899694 2428232.094212987 3980.69283165291 543114.977480606 8.37132652598431 -11.9234455984442 1010947.86008628 T 18 CATAB v2.0f-lin.ifort 2020-Aug-31 09:29:45 2020-Aug-31 09:30
1939-Apr-01 13:03 6_21:28 Earth 0.393946091931928 0.366867015206961 0.421106227927965 5.53443091896561 5.53320869569922 2429355.043403062 9928.32425931616 1381399.19576782 8.66579365534459 -11.9340090251526 628378.632997421 T 18 CATAB v2.0f-lin.ifort 2020-Aug-31 09:29:45 2020-Aug-31 09:30
1939-Sep-10 08:57 3_06:42 Earth 0.466464744493185 0.399938048325484 0.533041068312501 16.1183430083147 16.1179886212086 2429516.872605284 4722.40874364018 3327316.62177227 16.2083075649002 4.12230545501102 240513.93275798 T 18 CATAB v2.0f-lin.ifort 2020-Aug-31 09:29:45 2020-Aug-31 09:30
1942-Aug-22 05:55 8_12:24 Earth 0.158064333935222 0.0702659205093044 0.248314372551285 7.08633066191222 7.08395146728902 2430593.746382676 12264.3845756224 4546915.30353698 11.7228293891365 10.4369240453442 237171.133627896 T 18 CATAB v2.0f-lin.ifort 2020-Aug-31 09:29:45 2020-Aug-31 09:30
1948-Jun-01 20:44 5_02:53 Earth 0.430776737252772 0.338477369730073 0.523217732230556 15.1626639438022 15.1622560092923 2432704.363857821 7373.36681292491 4622567.90732262 6.7064181675573 -4.75172505275646 602647.927180268 T 18 CATAB v2.0f-lin.ifort 2020-Aug-31 09:29:45 2020-Aug-31 09:30
1948-Nov-07 01:15 9_23:59 Earth 0.379090515880883 0.340244508685986 0.418579487224529 5.40436338333499 5.40306268327627 2432862.551909612 14398.9047412778 2102660.17780016 5.68029243736482 -21.7230588695027 1678607.50652851 T 18 CATAB v2.0f-lin.ifort 2020-Aug-31 09:29:45 2020-Aug-31 09:30
1951-Dec-06 06:09 5_19:17 Earth 0.482411888356565 0.462127994502268 0.502854392445956 7.52194047775647 7.521206157241 2433986.756487991 8356.98614670641 1105168.480544 4.35026391683051 -23.2556314027778 3847005.31683069 T 18 CATAB v2.0f-lin.ifort 2020-Aug-31 09:29:45 2020-Aug-31 09:30
1967-Mar-23 18:01 09:18 Earth 0.42744238657606 0.426597350543676 0.428287816699427 6.25842578362568 6.25742968067354 2439573.250457513 558.471428424413 46855.353901733 8.57794928393385 -25.9813816589429 1305367.6549704 T 18 CATAB v2.0f-lin.ifort 2020-Aug-31 09:29:45 2020-Aug-31 09:30
1970-May-04 10:48 2_07:09 Earth 0.281353515356593 0.274648967112336 0.288061582915213 2.6070904621316 2.6034554423361 2440710.950089067 3308.73407697698 338093.015597524 6.57957766720495 -11.5228284597049 304155.618909467 T 18 CATAB v2.0f-lin.ifort 2020-Aug-31 09:29:45 2020-Aug-31 09:30
1970-Aug-28 17:39 14:27 Earth 0.240581831783941 0.230546547403864 0.250626723504029 9.51471074329358 9.51354666951329 2440827.235078969 866.566576921602 506366.689259952 12.7117452499678 8.67442981138519 286330.915450289 T 18 CATAB v2.0f-lin.ifort 2020-Aug-31 09:29:45 2020-Aug-31 09:30
1973-Jul-04 02:41 4_16:34 Earth 0.0561811878408809 0.0367097078778516 0.075703110802518 4.08831344133297 4.0766964217499 2441867.611855889 6754.37154370212 975842.746154898 1.63739084082483 6.06845443910058 414735.122731111 T 18 CATAB v2.0f-lin.ifort 2020-Aug-31 09:29:45 2020-Aug-31 09:30
1974-Mar-21 09:08 22:10 Mars 0.0964830987942513 0.0923442337991429 0.101578685995204 1.76138377049338 1.75969834800178 2442127.880442990 1330.27329722879 532287.602107888 2.72529321253323 64.3374686148591 2372567.90920005 T 18 CATAB v2.0f-lin.ifort 2020-Aug-31 09:29:45 2020-Aug-31 09:30
1976-Jun-03 11:54 1_01:54 Earth 0.409054098920533 0.388963276454345 0.429150303476618 14.5026155764298 14.5021664258157 2442932.995875919 1553.6864436401 1004710.46396709 5.91660487847794 -4.25728479839786 573935.514761934 T 18 CATAB v2.0f-lin.ifort 2020-Aug-31 09:29:45 2020-Aug-31 09:30
1976-Nov-05 09:49 2_07:02 Earth 0.368659150742202 0.359898857934247 0.377451912216479 5.17869966223931 5.17730385596945 2443087.909151336 3302.24012315579 470436.615536781 5.69432657672741 -21.6386490362078 1558139.75318122 T 18 CATAB v2.0f-lin.ifort 2020-Aug-31 09:29:45 2020-Aug-31 09:30
1979-Dec-09 01:40 1_04:19 Earth 0.486346847474241 0.482313465488171 0.490386383792341 7.6190250647387 7.61830596795786 2444216.569282793 1699.36360621241 218992.948393485 4.1371238524755 -23.2305474857298 4103828.50017864 T 18 CATAB v2.0f-lin.ifort 2020-Aug-31 09:29:45 2020-Aug-31 09:30
1992-Mar-15 12:04 00:43 Earth 0.452854958644011 0.45279212425863 0.452917800042674 6.80603585882025 6.80517131585659 2448697.002438894 43.3052378670004 4209.1767342069 6.24017696732806 41.8748889819675 9032817.89844722 T 18 CATAB v2.0f-lin.ifort 2020-Aug-31 09:29:45 2020-Aug-31 09:30
1995-Apr-27 02:26 14:34 Earth 0.303461017587624 0.301438418132644 0.305484031282022 3.33036384368819 3.32772636008767 2449834.601422143 874.079791060487 102408.566484271 7.12108698964325 -11.1542258731945 376681.708079913 T 18 CATAB v2.0f-lin.ifort 2020-Aug-31 09:29:45 2020-Aug-31 09:30
1995-Aug-31 23:06 04:36 Earth 0.277937393181204 0.274512679947935 0.281362879872548 10.6339820534353 10.6330805074912 2449961.462485231 276.177396463585 172353.808172508 13.6847502155207 7.76478602804605 283388.239522844 T 18 CATAB v2.0f-lin.ifort 2020-Aug-31 09:29:45 2020-Aug-31 09:30
1998-Jul-02 10:11 1_05:21 Earth 0.0657410769581133 0.059730546731407 0.0717513647363582 4.38109876378182 4.37183789453644 2450996.924084764 1761.09243716052 299647.851923197 1.6346525568166 3.33351085509638 253843.403991398 T 18 CATAB v2.0f-lin.ifort 2020-Aug-31 09:29:45 2020-Aug-31 09:30
2001-Jun-01 03:28 07:24 Earth 0.462136714955448 0.456105252753454 0.468168615093023 16.0339416878961 16.0335820988498 2452061.644755949 443.580435575635 301611.009209827 6.64978077723182 -4.29368116228325 599505.373834757 T 18 CATAB v2.0f-lin.ifort 2020-Aug-31 09:29:45 2020-Aug-31 09:30
2001-Nov-12 06:49 15:00 Earth 0.389454095685971 0.387058007879795 0.391852691653384 5.70709939174502 5.70590048262329 2452225.784185860 899.600694684288 129308.3916358 5.44632538482643 -22.4955730363797 1904054.39120535 T 18 CATAB v2.0f-lin.ifort 2020-Aug-31 09:29:45 2020-Aug-31 09:30
2014-Mar-05 07:45 03:41 Earth 0.485986093725956 0.485591947999606 0.486380282231558 7.50000574391042 7.49927469222103 2456721.822995718 220.598359973099 20929.4419809869 8.6157155752855 -20.1363315613349 1528204.97267863 T 18 CATAB v2.0f-lin.ifort 2020-Aug-31 09:29:45 2020-Aug-31 09:30
2017-Apr-12 17:53 03:15 Earth 0.350183601263207 0.349753729170058 0.350613504100488 4.56758776092639 4.5659216309886 2457856.244910542 194.654661130312 22052.5646829667 8.13077432122623 -13.9123024234322 580104.726446846 T 18 CATAB v2.0f-lin.ifort 2020-Aug-31 09:29:45 2020-Aug-31 09:30
